Weather History for Georgetown, DE

Change the Weather History Date:

Saturday, November 24, 2012

  Actual Average Record
Temperature  
Mean Temperature 43 °F 46 °F  
Max Temperature 52 °F 55 °F 75 °F (1992)
Min Temperature 34 °F 36 °F 15 °F (1976)
Degree Days  
Heating Degree Days 22 19  
Month to date heating degree days 451 376  
Since 1 July heating degree days 669 662  
Cooling Degree Days 0 0  
Month to date cooling degree days 0 0  
Year to date cooling degree days 1616 1194  
Moisture  
Dew Point 21 °F    
Average Humidity 48    
Maximum Humidity 59    
Minimum Humidity 36    
Precipitation  
Precipitation 0.00 in 0.11 in 2.27 in (1959)
Month to date precipitation 0.01 2.68  
Year to date precipitation 33.01 39.80  
Sea Level Pressure  
Sea Level Pressure 29.91 in    
Wind  
Wind Speed 10 mph (NW)    
Max Wind Speed 22 mph    
Max Gust Speed 31 mph    
Visibility 10 miles    
Events      
T = Trace of Precipitation, MM = Missing Value Source: NWS Daily Summary

Daily Weather History Graph

Daily Weather History Graph

Search for Another Location

Airport:

Trip Planner

Search our weather history database for the weather conditions in past years. The results will help you decide how hot, cold, wet, or windy it might be!

Date:

Astronomy

Nov. 24, 2012 Rise Set
Actual Time 6:53 AM EST 4:42 PM EST
Civil Twilight 6:24 AM EST 5:11 PM EST
Nautical Twilight 5:52 AM EST 5:44 PM EST
Astronomical Twilight 5:20 AM EST 6:15 PM EST
Moon 2:24 PM EST (11/24) 3:10 AM EST (11/24)
Length of Visible Light 10h 46m
Length of Day
9h 48m
Waxing Gibbous, 87% of the Moon is Illuminated
Nov 24
Waxing Gibbous
Nov 28
Full
Dec 6
Last Quarter
Dec 13
New
Dec 20
First Quarter

Hourly Weather History & Observations

Time (EST) Temp. Windchill Dew Point Humidity Pressure Visibility Wind Dir Wind Speed Gust Speed Precip Events Conditions
1:54 AM 48.9 °F - 28.0 °F 44% 29.79 in 10.0 mi WNW 11.5 mph 19.6 mph N/A   Overcast
2:54 AM 45.0 °F 38.9 °F 25.0 °F 46% 29.82 in 10.0 mi NW 12.7 mph 27.6 mph N/A   Clear
3:54 AM 42.1 °F 34.5 °F 21.9 °F 45% 29.83 in 10.0 mi NW 15.0 mph 25.3 mph N/A   Clear
4:54 AM 39.9 °F 33.4 °F 21.9 °F 49% 29.86 in 10.0 mi NW 10.4 mph 21.9 mph N/A   Clear
5:54 AM 39.0 °F 31.8 °F 19.9 °F 46% 29.87 in 10.0 mi NW 11.5 mph 18.4 mph N/A   Clear
6:54 AM 39.0 °F 31.8 °F 19.9 °F 46% 29.89 in 10.0 mi NW 11.5 mph 19.6 mph N/A   Clear
7:54 AM 39.9 °F 32.9 °F 19.9 °F 45% 29.91 in 10.0 mi NNW 11.5 mph 18.4 mph N/A   Clear
8:54 AM 41.0 °F 34.3 °F 19.0 °F 41% 29.91 in 10.0 mi NNW 11.5 mph 21.9 mph N/A   Overcast
9:54 AM 43.0 °F 37.2 °F 19.9 °F 40% 29.92 in 10.0 mi WNW 10.4 mph 27.6 mph N/A   Mostly Cloudy
10:54 AM 43.0 °F 38.2 °F 21.0 °F 42% 29.92 in 10.0 mi WNW 8.1 mph 21.9 mph N/A   Overcast
11:54 AM 43.0 °F 36.4 °F 21.0 °F 42% 29.89 in 10.0 mi NW 12.7 mph 24.2 mph N/A   Overcast
12:54 PM 43.0 °F 35.1 °F 19.9 °F 40% 29.88 in 10.0 mi WNW 17.3 mph 31.1 mph N/A   Mostly Cloudy
1:54 PM 43.0 °F 35.4 °F 21.0 °F 42% 29.89 in 10.0 mi WNW 16.1 mph 27.6 mph N/A   Overcast
2:54 PM 42.1 °F 34.9 °F 19.9 °F 41% 29.89 in 10.0 mi WNW 13.8 mph 20.7 mph N/A   Overcast
3:54 PM 42.1 °F 37.1 °F 19.9 °F 41% 29.90 in 10.0 mi NW 8.1 mph 17.3 mph N/A   Overcast
4:54 PM 42.1 °F 35.2 °F 18.0 °F 38% 29.92 in 10.0 mi NW 12.7 mph 29.9 mph N/A   Overcast
5:54 PM 41.0 °F 34.3 °F 18.0 °F 40% 29.95 in 10.0 mi WNW 11.5 mph 21.9 mph N/A   Overcast
6:54 PM 41.0 °F 35.2 °F 19.0 °F 41% 29.96 in 10.0 mi WNW 9.2 mph 17.3 mph N/A   Overcast
7:54 PM 39.0 °F 32.3 °F 19.0 °F 45% 29.97 in 10.0 mi WNW 10.4 mph 17.3 mph N/A   Clear
8:54 PM 37.9 °F 33.5 °F 19.9 °F 48% 29.99 in 10.0 mi West 5.8 mph - N/A   Clear
9:54 PM 37.0 °F 32.4 °F 19.9 °F 50% 30.01 in 10.0 mi West 5.8 mph - N/A   Clear
10:54 PM 35.1 °F 32.2 °F 21.0 °F 57% 30.02 in 10.0 mi WNW 3.5 mph - N/A   Clear
11:54 PM 35.1 °F - 21.0 °F 57% 30.02 in 10.0 mi Calm Calm - N/A   Clear